Tracking 31027 objects as of 19-Jul-2025
HD Live streaming from Space Station
objects crossing your sky now

OPS 4682 DEB

Track OPS 4682 DEB now!
10-day predictions


NORAD ID: 38397
Int'l Code: 1965-027DA
Perigee: 1,238.4 km
Apogee: 1,301.4 km
Inclination: 90.2 °
Period: 110.8 minutes
Semi major axis: 7640 km
RCS: 0.0089 m2 (small)
Launch date: April 3, 1965
Source: United States (US)
Launch site: AIR FORCE WESTERN TEST RANGE (AFWTR)

Note: This is SATELLITE DEBRIS
Your satellite tracking list
ICEYE-X27
Track 1 satellite(s)




NASA's NSSDC Master Catalog

Two Line Element Set (TLE):
1 38397U 65027DA  25199.89926534 -.00000061  00000-0 -22918-3 0  9996
2 38397  90.2426   9.9184 0041233  59.1888 301.3282 12.99819649619551
Source of the keplerian elements: AFSPC